Vorticity
nan nan nan nan nan nan nan nan nan nan nan nan nan nan nan nan nan nan nan nan nan nan nan nan nan nan nan nan nan nan nan nan nan nan nan nan nan nan nan nan nan nan nan nan nan nan nan nan nan
nan 4 4 6 6 6 2 2 10 11 12 8 2 5 7 6 10 16 16 11 7 4 4 5 6 7 4 5 5 5 6 6 6 6 5 5 5 4 4 4 3 5 5 6 5 5 5 5 nan
nan 3 5 8 8 4 2 6 11 8 4 3 4 5 8 6 15 10 9 13 5 4 4 5 7 5 4 4 5 5 5 6 6 6 5 5 5 4 4 3 3 4 4 4 4 6 6 7 nan
nan 7 6 6 8 4 2 5 9 7 6 8 5 6 5 11 12 11 14 6 5 4 4 5 7 4 4 4 5 5 5 5 6 6 6 5 4 4 4 4 4 3 5 4 5 5 6 6 nan
nan 6 7 7 6 8 5 4 4 10 10 6 7 5 6 10 14 17 9 5 4 4 4 7 6 5 5 5 5 5 5 5 5 6 5 5 6 5 4 5 4 4 4 6 7 6 6 6 nan
nan 7 8 5 5 7 6 5 3 8 8 7 9 7 6 9 13 11 8 6 4 5 4 5 7 7 6 5 5 5 5 5 5 5 5 6 6 6 6 6 6 6 5 6 8 7 6 6 nan
nan 8 8 5 6 7 4 6 7 4 6 14 8 2 9 11 9 10 7 8 5 5 4 4 7 7 6 5 4 5 5 5 5 5 5 6 7 7 7 7 5 6 7 6 6 7 5 6 nan
nan 8 6 4 3 7 8 6 9 10 12 8 4 7 11 16 9 6 7 7 7 5 5 5 6 6 5 6 6 5 5 6 5 5 5 5 5 7 5 5 9 7 6 6 6 6 6 5 nan
nan 8 6 6 1 1 6 5 9 11 6 2 5 10 20 19 6 3 5 6 5 6 6 6 6 6 6 7 7 7 6 5 5 6 5 3 6 8 5 6 8 7 6 6 6 7 7 4 nan
nan 6 8 3 1 1 7 9 7 6 5 5 4 9 17 10 5 4 2 5 6 6 5 6 6 6 5 6 8 6 6 6 7 7 5 6 8 7 8 8 7 6 6 6 6 8 4 4 nan
nan 3 3 3 8 10 8 10 9 5 5 10 10 6 9 5 4 5 6 7 6 4 5 8 6 6 5 4 5 6 7 8 9 7 6 6 6 7 6 6 8 8 7 7 7 7 5 5 nan
nan 6 1 4 8 8 5 3 5 5 1 8 17 18 9 4 5 4 6 7 9 6 5 5 5 7 5 4 7 6 6 7 7 9 7 5 6 7 6 7 7 7 7 7 7 6 8 7 nan
nan 5 7 6 3 6 6 2 10 10 8 12 18 15 7 5 7 6 6 8 8 7 6 5 5 5 6 5 5 7 7 7 7 8 7 6 7 7 7 7 7 7 7 7 7 7 7 7 nan
nan 7 7 16 14 11 9 10 10 10 10 15 20 11 8 6 8 6 7 7 7 9 7 6 6 6 5 5 6 6 8 7 7 7 7 6 6 7 7 7 7 6 6 7 8 7 7 7 nan
nan 7 15 18 14 13 11 14 3 5 8 15 16 14 11 9 7 10 7 7 7 7 9 8 7 6 6 5 5 6 7 7 7 8 8 6 6 6 6 6 7 7 7 7 7 7 7 7 nan
nan 9 9 4 8 10 8 5 6 6 10 14 15 16 14 11 6 12 9 8 8 9 9 7 8 8 5 4 5 6 7 7 8 8 9 8 6 6 5 6 7 7 7 7 7 7 7 8 nan
nan 6 7 5 8 5 8 2 5 8 15 12 15 17 12 11 11 11 13 12 9 8 7 8 8 9 7 5 6 7 7 6 7 8 9 10 7 5 5 6 7 7 7 7 7 6 7 7 nan
nan 9 7 7 8 8 5 4 5 13 12 13 17 19 17 14 14 10 10 8 9 9 9 7 9 10 8 5 6 7 7 8 7 7 8 8 8 8 6 6 7 7 6 7 7 7 6 6 nan
nan 6 7 12 9 5 8 11 6 9 8 8 10 17 20 17 18 16 10 5 8 9 8 8 7 6 6 8 8 7 7 8 7 9 9 7 8 8 5 6 8 7 7 7 7 7 7 7 nan
nan 7 10 8 11 9 2 9 6 8 7 4 6 7 14 20 21 17 10 6 7 11 9 9 6 6 3 5 8 9 10 9 9 9 11 10 8 7 7 6 7 7 7 9 8 6 5 8 nan
nan 9 6 6 8 9 8 8 6 8 7 5 6 5 6 9 11 11 13 16 18 16 9 7 8 6 6 4 4 7 8 10 11 9 10 11 9 8 8 7 6 7 7 8 9 9 6 6 nan
nan 12 8 9 7 5 11 10 8 4 6 6 6 7 5 5 8 8 8 11 14 21 23 10 10 9 8 6 7 6 4 7 8 10 9 11 12 8 8 7 7 6 7 8 7 8 8 8 nan
nan 12 13 11 10 8 11 6 7 9 6 2 2 3 6 7 6 7 8 8 9 10 22 27 13 7 8 8 4 6 4 5 9 11 11 8 11 12 9 8 8 7 7 8 8 9 8 8 nan
nan 9 7 9 10 6 8 10 6 9 7 5 3 3 2 4 7 9 9 8 7 8 10 18 18 13 9 8 8 5 5 4 6 8 8 9 9 11 11 9 9 8 8 8 9 10 10 8 nan
nan 8 9 8 5 6 11 10 10 10 8 5 5 5 6 9 8 5 7 10 8 8 10 10 15 17 13 10 9 8 7 8 7 6 7 8 8 10 12 10 7 8 9 8 9 11 10 7 nan
nan 8 11 11 10 10 10 9 9 9 7 5 5 6 7 8 9 7 8 8 8 9 12 11 10 21 22 12 9 9 7 6 10 7 6 7 9 10 11 10 8 8 7 8 8 8 7 7 nan
nan 9 9 14 11 9 8 10 8 8 8 7 5 6 7 6 7 7 8 8 8 9 11 11 11 22 25 15 10 9 9 8 8 8 7 6 7 11 12 9 8 8 8 8 7 7 8 7 nan
nan 13 9 9 7 10 8 8 9 3 8 9 10 9 7 6 8 9 7 5 7 9 12 12 10 13 22 22 12 10 9 9 9 10 10 7 7 9 10 10 7 9 10 9 6 6 9 6 nan
nan 5 7 8 11 9 9 9 5 3 4 6 7 10 10 7 7 8 8 6 8 8 10 11 10 11 12 15 19 15 11 10 10 9 9 9 8 9 8 9 9 10 9 10 8 8 10 8 nan
nan nan nan nan nan nan nan nan nan nan nan nan nan nan nan nan nan nan nan nan nan nan nan nan nan nan nan nan nan nan nan nan nan nan nan nan nan nan nan nan nan nan nan nan nan nan nan nan nan
CAPE
850 1205 1449 1128 1079 131 3 5 1 65 34 34 62 0 0 0 0 5 298 2 7 227 882 1997 2977 2885 2460 2626 2625 2952 2969 2772 2446 2553 2476 2472 2469 1993 2218 1685 1758 1751 1656 1570 1539 1770 1614 1419 1035
779 1136 1160 1640 554 41 27 24 190 74 30 0 0 8 103 223 695 409 4 0 7 280 1037 1622 2994 3037 2867 3328 3124 2914 2956 2498 2830 2837 2704 2626 2421 2200 2055 1209 1351 1277 1364 1463 1502 1615 1601 1479 1235
816 1255 1642 578 464 91 87 86 164 124 171 228 329 631 666 822 634 63 0 0 9 415 1061 1810 3115 3065 2669 2872 3077 3093 2747 2863 2663 2622 2252 2200 2068 2298 1907 1473 1437 1447 1421 1358 1175 1248 1305 1540 1157
1152 1780 423 304 155 99 102 102 76 149 186 432 455 482 932 823 431 332 0 0 34 415 1098 2754 3387 2947 3050 2977 3323 3199 3100 2850 2976 2771 2555 2382 2238 1888 2182 1551 1538 1469 1364 1227 1154 1180 1356 1572 1258
321 63 228 99 115 108 82 39 48 78 484 692 574 639 756 999 1056 474 3 0 34 509 1043 2503 3442 3345 3321 3072 2972 2861 2930 2796 2759 2134 2031 2511 2633 2575 2461 1702 1581 1607 1330 1432 1549 1118 1198 1309 1293
18 84 190 124 42 52 59 47 23 117 667 747 561 660 812 1367 1247 417 47 2 84 638 964 2216 3224 3516 3232 2744 2535 2412 2430 2487 2413 2281 2168 2146 1991 1930 2113 2033 1736 1564 1836 1666 1652 1440 924 912 1284
88 234 283 117 54 93 87 46 42 64 122 345 608 696 1177 1551 1443 647 314 152 369 584 865 2017 2483 2957 3008 3239 3041 2861 2569 2439 2841 2656 2729 2351 2037 1939 1896 1768 1712 1810 1790 1519 1667 1387 800 1308 1381
134 199 244 101 4 4 81 43 41 9 201 912 723 875 946 1559 1617 1131 1174 804 866 776 934 1536 2352 2445 2460 2640 2585 3042 2910 2438 2646 2359 1818 2053 2001 1913 2033 1875 1643 1705 1581 1537 1378 1272 983 1345 1207
77 94 173 29 23 2 42 47 19 222 401 744 933 798 859 1621 1670 1480 1436 1279 1126 1198 1485 1765 2160 2460 2643 2369 2379 2922 2439 2332 2424 2500 2238 2531 2104 1744 1949 1572 1689 1542 1702 1555 1252 1125 1257 1008 957
1235 256 29 7 33 41 66 19 14 109 152 226 627 912 1481 1665 1653 1544 1543 1179 1211 1273 1561 1790 1907 2026 2352 1970 2495 2444 2238 2027 2238 2273 2123 2644 2172 2169 1803 1364 1326 1642 1109 1026 1068 2057 1550 924 644
990 545 303 125 67 180 23 5 9 33 32 15 244 452 1564 1721 1635 1610 1543 1431 1359 1249 1583 1748 1807 2070 1784 1529 1815 2188 1865 1957 2450 2094 2037 2593 2296 2300 1778 2024 1508 1151 1432 894 1519 1427 859 443 527
643 616 502 42 9 2 0 7 0 2 0 0 25 251 1453 1684 1672 1604 1636 1560 1439 1232 1457 1631 1719 2074 1841 1838 1809 1947 1818 2216 1788 1995 2278 2331 2175 2101 2091 1932 2028 930 658 1453 1445 1310 1227 963 569
194 14 0 0 0 0 0 0 0 0 0 0 1 546 1203 1543 1689 1624 1610 1533 1345 1248 1290 1469 1809 2066 2046 2075 1900 1934 1655 1610 1250 2540 2512 2137 2093 1970 1969 2012 1736 1544 771 2032 1572 1224 870 799 560
0 0 0 0 0 0 0 0 0 0 0 0 0 472 951 1247 1629 1644 1522 1517 1278 1168 1250 1435 1829 2044 2002 1938 1940 1811 1661 1608 1853 2262 2175 2361 2000 2051 1981 2083 1680 1866 1554 1190 1726 1824 898 844 333
0 0 0 0 0 0 0 0 0 0 0 0 56 392 877 1245 1384 1627 1485 1503 1378 1167 1196 1393 1698 1895 1727 1599 1691 1766 1703 1781 1888 2099 2534 2230 2237 1805 1858 1891 1684 1341 1972 1931 1413 1580 1612 1261 884
0 0 0 0 0 0 0 0 0 0 0 0 1 436 956 1286 1293 1531 1436 1532 1497 1193 1238 1404 1418 1575 1681 1310 1487 1607 1368 1439 1416 1552 1919 2397 2228 2299 1805 1596 1527 1583 1662 1732 1782 1252 842 709 987
0 0 0 0 0 0 0 0 0 0 0 0 0 171 859 1109 1348 1389 1380 1392 1546 1462 1326 1410 1514 1507 1640 1687 1458 1611 1525 1399 1263 1365 1482 1797 1975 1907 1929 1239 1449 2090 1819 2053 1981 1838 1387 885 399
0 0 0 0 0 0 0 0 0 0 0 0 0 0 511 959 1293 1365 1367 1355 1449 1641 1463 1532 1528 1867 1743 1592 1558 1288 1297 1229 1348 1477 1401 1473 1950 1949 1847 1361 1813 2009 1846 1897 2022 1879 1734 1323 936
0 0 0 0 0 0 0 0 0 0 0 0 0 6 372 693 858 1040 1413 1454 1273 1799 1678 1983 1898 2152 1812 1304 1088 1006 845 891 907 1086 1466 1809 1518 1625 1869 1340 1547 1800 1719 1808 2073 1958 1938 1655 1469
0 0 0 0 0 0 0 0 0 0 0 0 0 0 0 120 753 946 1055 1507 1575 1711 1866 1828 2018 2115 1920 1608 1358 1136 1105 780 687 718 998 1330 1605 1563 1549 1601 1422 1508 1379 1617 1885 1848 1527 1498 1446
0 0 0 0 0 0 0 0 0 0 0 0 0 0 0 0 10 142 542 891 1265 1866 2200 2198 2292 2177 2001 1810 1658 1416 1167 1009 969 916 1005 1187 1348 1465 1540 1651 1714 1724 1721 1562 1804 1778 1669 1916 1476
0 0 0 0 0 0 0 0 0 0 0 0 0 0 0 0 1 33 123 436 606 881 1676 2216 2235 2422 2223 2116 1945 1902 1522 1296 1193 1202 1160 1063 1471 1522 1536 1724 1773 1838 1609 2124 1775 1933 1800 1844 2248
0 0 0 0 0 0 0 0 0 0 0 0 0 0 12 31 49 45 46 169 317 555 1049 1716 2625 2660 2368 2281 2144 1965 1991 1758 1676 1489 2064 1988 1832 1495 1417 1703 1758 2023 1757 1716 1811 1764 1802 1477 1906
0 0 0 0 0 0 0 0 0 0 0 0 0 0 0 23 68 288 267 82 218 260 455 1010 1852 2650 2767 2540 2312 2291 2244 2236 2001 2110 1941 1795 1653 1437 1842 1500 2045 2226 2137 1749 1668 1805 1498 1286 625
0 0 0 0 0 0 0 0 0 0 0 0 0 0 18 105 105 251 662 586 722 725 448 782 1601 1920 2642 2641 2510 2332 2398 2504 2610 2655 2182 2060 1755 1785 2253 2111 2030 1580 2014 1944 1643 1577 487 124 214
0 0 0 0 0 0 0 0 0 0 0 0 0 0 140 255 568 730 872 690 803 830 561 617 1249 1960 2066 2376 2627 2449 2390 2315 2417 2622 2213 1818 1901 2095 2756 2412 2107 1727 1628 1601 1730 1508 916 508 288
0 0 0 0 0 0 0 0 0 0 0 0 4 18 60 10 240 672 544 500 684 827 538 622 1301 2059 1860 2170 2521 2645 2552 2449 2333 2556 2591 1970 1635 1972 2380 2163 2224 2257 1989 1977 2062 1575 1037 615 558
0 0 0 0 0 0 0 0 0 0 0 0 53 78 83 29 151 556 404 511 485 752 630 677 1016 1313 1925 2091 2234 2339 2510 2574 2414 2539 2259 2317 2308 1821 1864 1952 1945 2026 2183 2121 2090 1589 1199 1156 1044
0 0 0 0 0 0 0 0 0 0 0 8 82 111 162 55 168 498 397 498 393 561 893 858 1119 1115 1063 1316 2292 2471 2127 2330 2205 2306 2012 1890 1949 1781 1748 1728 1909 1905 1815 1772 1891 1674 1225 1041 1210
0 0 0 0 0 0 0 0 0 0 0 0 14 92 111 106 117 287 516 522 424 502 798 603 776 982 1147 955 820 856 1856 2122 2047 2233 2259 1724 1828 1634 1697 1679 1718 1743 1734 1901 1875 1632 1374 1214 1409